Погода в Сарафоново

Россия / Ярославская область     57°39′42″N   39°41′01″E
темп.,
°C
ветер,
м/с
пор.,
м/с
влажн.,
%
обл.,
%
осадки,
мм/ч
давл.,
гПа
погр.,
м
7 мая, пт
пт700:00+7юз5118487 0.4 1005664
03:00+6юз41091100 0.4 1006510
06:00+6юз5877100 0.0 1007831
09:00+7юз4779100 0.0 1008687
12:00+9зюз586599 0.1 10091538
15:00+13зюз694198 0.4 10092557
18:00+12юз58543 0.1 1010742
21:00+7ююз34715 0.1 101246
8 мая, сб
сб800:00+6ю3879100 0.0 1013136
03:00+6ююв41177100 0.0 1012232
06:00+7ююв51472100 0.0 1011458
09:00+10ююв71466100 0.0 1010893
12:00+10ююв81568100 0.1 10081698
15:00+8ююв81890100 3.9 10061516
18:00+9ююв81591100 4.6 10041063
21:00+9ююв51295100 6.8 1002699
9 мая, вс
вс900:00+8зюз3697100 1.6 1002289
03:00+5юз81394100 1.4 10031014
06:00+2зсз71698100 2.0 1007605
09:00+4зсз71296100 5.8 1010906
12:00+7зсз7107950 0.2 10141153
15:00+9сз6105861 0.3 10171925
18:00+9зсз476217 0.0 1020825
21:00+5зюз33802 0.0 102231
10 мая, пн
пн1000:00+3з34813 0.0 102552
03:00+2з228246 0.0 102720
06:00+5юз247940 0.0 1028113
09:00+10юз576110 0.0 1029557
12:00+13юз684735 0.0 10291672
15:00+13зюз476183 0.0 1029981
18:00+13зюз486443 0.0 1029687
21:00+8юз348255 0.0 103060
11 мая, вт
вт1100:00+8юз348514 0.0 103053
03:00+7юз348598 0.0 103154
06:00+8юз268445 0.0 1032150
09:00+14ююз4568100 0.0 1032453
12:00+18юз455637 0.0 10321161
15:00+19ююз455439 0.0 10301254
18:00+18ю46677 0.0 1029277
21:00+12ююз3479100 0.0 102948